"Platform","Muskegon M45 ReCON Buoy"
"Latitude (deg)",43.230490
"Longitude (deg)",-86.467410
"Water Depth (m)",46.6
"Sensor Device","System Power Controller board voltage input"
"Sensor Type","Power input at underwater hub"
"Sensor Units","voltage"
"Measurement","A sample"
"Time means","Time at sample (UTC time zone)"

"Note:","This data was collected for research purposes."
"Note:","Minimal quality checking has been performed so data may contain known or unknown errors."
"Note:","Data provided by NOAA. Please credit NOAA."
"Note:","For more info see www.glerl.noaa.gov/res/recon"

"Time (UTC)","U/W Hub Bus"
"YYYY/MM/DD HH:MM","volts"
2020/08/01 00:17, 49.80
2020/08/01 00:47, 49.21
2020/08/01 01:17, 47.41
2020/08/01 01:47, 47.48
2020/08/01 02:17, 47.51
2020/08/01 02:47, 47.48
2020/08/01 03:17, 47.45
2020/08/01 03:47, 47.43
2020/08/01 04:17, 47.39
2020/08/01 04:47, 47.34
2020/08/01 05:17, 47.24
2020/08/01 05:47, 47.21
2020/08/01 06:17, 47.20
2020/08/01 06:47, 47.13
2020/08/01 07:17, 47.09
2020/08/01 07:47, 47.01
2020/08/01 08:17, 46.90
2020/08/01 08:47, 46.84
2020/08/01 09:17, 46.78
2020/08/01 09:47, 46.71
2020/08/01 10:17, 46.68
2020/08/01 10:47, 46.87
2020/08/01 11:17, 46.69
2020/08/01 11:47, 47.06
2020/08/01 12:17, 47.58
2020/08/01 12:47, 50.37
2020/08/01 13:17, 51.31
2020/08/01 13:47, 51.52
2020/08/01 14:17, 51.87
2020/08/01 14:47, 50.59
2020/08/01 15:17, 51.68
2020/08/01 15:47, 52.94
2020/08/01 16:17, 52.14
2020/08/01 16:47, 51.21
2020/08/01 17:17, 53.77
2020/08/01 17:47, 52.13
2020/08/01 18:17, 52.16
2020/08/01 18:47, 52.28
2020/08/01 19:17, 52.29
2020/08/01 19:47, 52.43
2020/08/01 20:17, 52.43
2020/08/01 20:47, 52.11
2020/08/01 21:17, 52.11
2020/08/01 21:47, 52.11
2020/08/01 22:17, 52.29
2020/08/01 22:47, 48.73
2020/08/01 23:17, 47.97
2020/08/01 23:47, 47.75
2020/08/02 00:17, 47.52
2020/08/02 00:47, 47.53
2020/08/02 01:17, 47.48
2020/08/02 01:47, 47.44
2020/08/02 02:17, 47.41
2020/08/02 02:47, 47.35
2020/08/02 03:17, 47.32
2020/08/02 03:47, 47.23
2020/08/02 04:17, 47.21
2020/08/02 04:47, 47.20
2020/08/02 05:17, 47.14
2020/08/02 05:47, 47.14
2020/08/02 06:17, 47.09
2020/08/02 06:47, 47.03
2020/08/02 07:17, 46.94
2020/08/02 07:47, 46.81
2020/08/02 08:17, 46.74
2020/08/02 08:47, 46.66
2020/08/02 09:17, 46.61
2020/08/02 09:47, 46.58
2020/08/02 10:17, 46.56
2020/08/02 10:47, 46.56
2020/08/02 11:17, 46.53
2020/08/02 11:47, 46.51
2020/08/02 12:17, 46.50
2020/08/02 12:47, 46.51
2020/08/02 13:17, 47.22
2020/08/02 13:47, 48.12
2020/08/02 14:17, 47.66
2020/08/02 14:47, 47.20
2020/08/02 15:17, 47.20
2020/08/02 15:47, 47.44
2020/08/02 16:17, 49.48
2020/08/02 16:47, 49.55
2020/08/02 17:17, 49.92
2020/08/02 17:47, 50.40
2020/08/02 18:17, 50.95
2020/08/02 18:47, 50.70
2020/08/02 19:17, 50.62
2020/08/02 19:47, 49.91
2020/08/02 20:17, 51.90
2020/08/02 20:47, 50.97
2020/08/02 21:17, 52.08
2020/08/02 21:47, 53.02
2020/08/02 22:17, 49.30
2020/08/02 22:47, 48.28
2020/08/02 23:17, 47.95
2020/08/02 23:47, 47.93
2020/08/03 00:17, 47.57
2020/08/03 00:47, 47.44
2020/08/03 01:17, 47.39
2020/08/03 01:47, 47.34
2020/08/03 02:17, 47.27
2020/08/03 02:47, 47.24
2020/08/03 03:17, 47.20
2020/08/03 03:47, 47.17
2020/08/03 04:17, 47.13
2020/08/03 04:47, 47.11
2020/08/03 05:17, 47.04
2020/08/03 05:47, 46.98
2020/08/03 06:17, 46.91
2020/08/03 06:47, 46.79
2020/08/03 07:17, 46.70
2020/08/03 07:47, 46.59
2020/08/03 08:17, 46.56
2020/08/03 08:47, 46.53
2020/08/03 09:17, 46.48
2020/08/03 09:47, 46.41
2020/08/03 10:17, 46.40
2020/08/03 10:47, 46.38
2020/08/03 11:17, 46.37
2020/08/03 11:47, 46.49
2020/08/03 12:17, 48.00
2020/08/03 12:47, 46.75
2020/08/03 13:17, 47.10
2020/08/03 13:47, 47.21
2020/08/03 14:17, 48.20
2020/08/03 14:47, 50.85
2020/08/03 15:17, 50.33
2020/08/03 15:47, 50.84
2020/08/03 16:17, 51.35
2020/08/03 16:47, 50.75
2020/08/03 17:17, 49.88
2020/08/03 17:47, 51.17
2020/08/03 18:17, 51.96
2020/08/03 18:47, 51.65
2020/08/03 19:17, 51.98
2020/08/03 19:47, 54.17
2020/08/03 20:17, 51.17
2020/08/03 20:47, 51.28
2020/08/03 21:17, 51.06
2020/08/03 21:47, 52.65
2020/08/03 22:17, 52.64
2020/08/03 22:47, 50.56
2020/08/03 23:17, 52.70
2020/08/03 23:47, 47.95
2020/08/04 00:17, 47.51
2020/08/04 00:47, 47.70
2020/08/04 01:17, 47.43
2020/08/04 01:47, 47.41
2020/08/04 02:17, 47.37
2020/08/04 02:47, 47.34
2020/08/04 03:17, 47.27
2020/08/04 03:47, 47.25
2020/08/04 04:17, 47.21
2020/08/04 04:47, 47.17
2020/08/04 05:17, 47.17
2020/08/04 05:47, 47.14
2020/08/04 06:17, 47.12
2020/08/04 06:47, 47.05
2020/08/04 07:17, 47.01
2020/08/04 07:47, 46.95
2020/08/04 08:17, 46.86
2020/08/04 08:47, 46.79
2020/08/04 09:17, 46.76
2020/08/04 09:47, 46.70
2020/08/04 10:17, 46.65
2020/08/04 10:47, 46.63
2020/08/04 11:17, 48.68
2020/08/04 11:47, 51.09
2020/08/04 12:17, 48.73
2020/08/04 12:47, 51.16
2020/08/04 13:17, 52.08
2020/08/04 13:47, 51.98
2020/08/04 14:17, 52.57
2020/08/04 14:47, 52.42
2020/08/04 15:17, 52.99
2020/08/04 15:47, 54.41
2020/08/04 16:17, 54.38
2020/08/04 16:47, 54.39
2020/08/04 17:17, 54.36
2020/08/04 17:47, 52.75
2020/08/04 18:17, 52.76
2020/08/04 18:47, 52.69
2020/08/04 19:17, 52.71
2020/08/04 19:47, 52.74
2020/08/04 20:17, 52.76
2020/08/04 20:47, 52.75
2020/08/04 21:17, 52.75
2020/08/04 21:47, 52.75
2020/08/04 22:17, 52.78
2020/08/04 22:47, 52.74
2020/08/04 23:17, 52.75
2020/08/04 23:47, 52.75
2020/08/05 00:17, 52.75
2020/08/05 00:47, 47.89
2020/08/05 01:17, 47.12
2020/08/05 01:47, 47.13
2020/08/05 02:17, 47.13
2020/08/05 02:47, 47.13
2020/08/05 03:17, 47.12
2020/08/05 03:47, 47.07
2020/08/05 04:17, 47.05
2020/08/05 04:47, 46.98
2020/08/05 05:17, 46.87
2020/08/05 05:47, 46.79
2020/08/05 06:17, 46.72
2020/08/05 06:47, 46.61
2020/08/05 07:17, 46.58
2020/08/05 07:47, 46.51
2020/08/05 08:17, 46.38
2020/08/05 08:47, 46.32
2020/08/05 09:17, 46.28
2020/08/05 09:47, 46.26
2020/08/05 10:17, 46.22
2020/08/05 10:47, 46.38
2020/08/05 11:17, 48.56
2020/08/05 11:47, 50.63
2020/08/05 12:17, 51.27
2020/08/05 12:47, 50.06
2020/08/05 13:17, 51.71
2020/08/05 13:47, 51.85
2020/08/05 14:17, 51.52
2020/08/05 14:47, 52.24
2020/08/05 15:17, 52.52
2020/08/05 15:47, 52.89
2020/08/05 16:17, 53.57
2020/08/05 16:47, 53.92
2020/08/05 17:17, 54.37
2020/08/05 17:47, 54.35
2020/08/05 18:17, 52.76
2020/08/05 18:47, 52.91
2020/08/05 19:17, 52.65
2020/08/05 19:47, 52.74
2020/08/05 20:17, 52.75
2020/08/05 20:47, 52.74
2020/08/05 21:17, 52.72
2020/08/05 21:47, 52.74
2020/08/05 22:17, 52.71
2020/08/05 22:47, 52.71
2020/08/05 23:17, 49.25
2020/08/05 23:47, 52.73
2020/08/06 00:17, 52.73
2020/08/06 00:47, 47.56
2020/08/06 01:17, 47.41
2020/08/06 01:47, 47.41
2020/08/06 02:17, 47.41
2020/08/06 02:47, 47.37
2020/08/06 03:17, 47.33
2020/08/06 03:47, 47.29
2020/08/06 04:17, 47.27
2020/08/06 04:47, 47.22
2020/08/06 05:17, 47.19
2020/08/06 05:47, 47.16
2020/08/06 06:17, 47.15
2020/08/06 06:47, 47.12
2020/08/06 07:17, 47.07
2020/08/06 07:47, 47.01
2020/08/06 08:17, 46.94
2020/08/06 08:47, 46.86
2020/08/06 09:17, 46.79
2020/08/06 09:47, 46.69
2020/08/06 10:17, 46.65
2020/08/06 10:47, 46.69
2020/08/06 11:17, 49.46
2020/08/06 11:47, 51.02
2020/08/06 12:17, 51.63
2020/08/06 12:47, 52.28
2020/08/06 13:17, 52.71
2020/08/06 13:47, 53.32
2020/08/06 14:17, 53.85
2020/08/06 14:47, 54.74
2020/08/06 15:17, 54.74
2020/08/06 15:47, 54.74
2020/08/06 16:17, 53.20
2020/08/06 16:47, 53.23
2020/08/06 17:17, 53.20
2020/08/06 17:47, 53.18
2020/08/06 18:17, 53.22
2020/08/06 18:47, 53.17
2020/08/06 19:17, 53.24
2020/08/06 19:47, 53.16
2020/08/06 20:17, 53.17
2020/08/06 20:47, 53.26
2020/08/06 21:17, 53.16
2020/08/06 21:47, 53.14
2020/08/06 22:17, 53.24
2020/08/06 22:47, 53.26
2020/08/06 23:17, 53.25
2020/08/06 23:47, 53.21
2020/08/07 00:17, 53.18
2020/08/07 00:47, 48.50
2020/08/07 01:17, 47.31
2020/08/07 01:47, 47.38
2020/08/07 02:17, 47.38
2020/08/07 02:47, 47.44
2020/08/07 03:17, 47.41
2020/08/07 03:47, 47.34
2020/08/07 04:17, 47.25
2020/08/07 04:47, 47.23
2020/08/07 05:17, 47.18
2020/08/07 05:47, 47.17
2020/08/07 06:17, 47.13
2020/08/07 06:47, 47.07
2020/08/07 07:17, 46.97
2020/08/07 07:47, 46.87
2020/08/07 08:17, 46.75
2020/08/07 08:47, 46.67
2020/08/07 09:17, 46.61
2020/08/07 09:47, 46.57
2020/08/07 10:17, 46.54
2020/08/07 10:47, 46.51
2020/08/07 11:17, 48.70
2020/08/07 11:47, 50.79
2020/08/07 12:17, 51.60
2020/08/07 12:47, 51.87
2020/08/07 13:17, 52.30
2020/08/07 13:47, 53.28
2020/08/07 14:17, 53.57
2020/08/07 14:47, 53.88
2020/08/07 15:17, 53.89
2020/08/07 15:47, 53.90
2020/08/07 16:17, 52.31
2020/08/07 16:47, 52.28
2020/08/07 17:17, 52.30
2020/08/07 17:47, 52.31
2020/08/07 18:17, 52.33
2020/08/07 18:47, 52.31
2020/08/07 19:17, 52.29
2020/08/07 19:47, 52.33
2020/08/07 20:17, 52.31
2020/08/07 20:47, 52.25
2020/08/07 21:17, 52.33
2020/08/07 21:47, 52.31
2020/08/07 22:17, 52.28
2020/08/07 22:47, 52.29
2020/08/07 23:17, 52.26
2020/08/07 23:47, 52.32
2020/08/08 00:17, 48.17
2020/08/08 00:47, 47.38
2020/08/08 01:17, 47.41
2020/08/08 01:47, 47.41
2020/08/08 02:17, 47.40
2020/08/08 02:47, 47.41
2020/08/08 03:17, 47.36
2020/08/08 03:47, 47.30
2020/08/08 04:17, 47.22
2020/08/08 04:47, 47.20
2020/08/08 05:17, 47.15
2020/08/08 05:47, 47.14
2020/08/08 06:17, 47.08
2020/08/08 06:47, 47.03
2020/08/08 07:17, 46.90
2020/08/08 07:47, 46.81
2020/08/08 08:17, 46.75
2020/08/08 08:47, 46.66
2020/08/08 09:17, 46.60
2020/08/08 09:47, 46.55
2020/08/08 10:17, 46.53
2020/08/08 10:47, 46.51
2020/08/08 11:17, 47.50
2020/08/08 11:47, 49.71
2020/08/08 12:17, 50.74
2020/08/08 12:47, 51.36
2020/08/08 13:17, 51.70
2020/08/08 13:47, 51.84
2020/08/08 14:17, 52.26
2020/08/08 14:47, 53.55
2020/08/08 15:17, 54.10
2020/08/08 15:47, 54.16
2020/08/08 16:17, 54.13
2020/08/08 16:47, 54.17
2020/08/08 17:17, 52.56
2020/08/08 17:47, 52.58
2020/08/08 18:17, 52.57
2020/08/08 18:47, 52.35
2020/08/08 19:17, 52.52
2020/08/08 19:47, 52.17
2020/08/08 20:17, 49.00
2020/08/08 20:47, 52.33
2020/08/08 21:17, 52.31
2020/08/08 21:47, 52.33
2020/08/08 22:17, 52.33
2020/08/08 22:47, 52.35
2020/08/08 23:17, 52.30
2020/08/08 23:47, 52.32
2020/08/09 00:17, 52.28
2020/08/09 00:47, 47.37
2020/08/09 01:17, 47.38
2020/08/09 01:47, 47.38
2020/08/09 02:17, 47.37
2020/08/09 02:47, 47.32
2020/08/09 03:17, 47.29
2020/08/09 03:47, 47.22
2020/08/09 04:17, 47.19
2020/08/09 04:47, 47.17
2020/08/09 05:17, 47.14
2020/08/09 05:47, 47.10
2020/08/09 06:17, 47.05
2020/08/09 06:47, 46.96
2020/08/09 07:17, 46.87
2020/08/09 07:47, 46.80
2020/08/09 08:17, 46.74
2020/08/09 08:47, 46.66
2020/08/09 09:17, 46.58
2020/08/09 09:47, 46.55
2020/08/09 10:17, 46.55
2020/08/09 10:47, 46.52
2020/08/09 11:17, 46.95
2020/08/09 11:47, 47.51
2020/08/09 12:17, 46.70
2020/08/09 12:47, 46.81
2020/08/09 13:17, 47.28
2020/08/09 13:47, 49.01
2020/08/09 14:17, 50.95
2020/08/09 14:47, 51.20
2020/08/09 15:17, 51.28
2020/08/09 15:47, 51.05
2020/08/09 16:17, 51.41
2020/08/09 16:47, 51.44
2020/08/09 17:17, 51.50
2020/08/09 17:47, 52.11
2020/08/09 18:17, 53.29
2020/08/09 18:47, 53.36
2020/08/09 19:17, 53.47
2020/08/09 19:47, 53.39
2020/08/09 20:17, 51.75
2020/08/09 20:47, 51.72
2020/08/09 21:17, 51.76
2020/08/09 21:47, 51.75
2020/08/09 22:17, 48.89
2020/08/09 22:47, 48.83
2020/08/09 23:17, 49.19
2020/08/09 23:47, 47.94
2020/08/10 00:17, 47.41
2020/08/10 00:47, 47.43
2020/08/10 01:17, 47.40
2020/08/10 01:47, 47.37
2020/08/10 02:17, 47.30
2020/08/10 02:47, 47.29
2020/08/10 03:17, 47.23
2020/08/10 03:47, 47.22
2020/08/10 04:17, 47.19
2020/08/10 04:47, 47.17
2020/08/10 05:17, 47.13
2020/08/10 05:47, 47.09
2020/08/10 06:17, 47.02
2020/08/10 06:47, 46.95
2020/08/10 07:17, 46.87
2020/08/10 07:47, 46.79
2020/08/10 08:17, 46.72
2020/08/10 08:47, 46.65
2020/08/10 09:17, 46.61
2020/08/10 09:47, 46.57
2020/08/10 10:17, 46.55
2020/08/10 10:47, 46.51
2020/08/10 11:17, 47.24
2020/08/10 11:47, 49.47
2020/08/10 12:17, 50.30
2020/08/10 12:47, 51.08
2020/08/10 13:17, 51.34
2020/08/10 13:47, 51.58
2020/08/10 14:17, 51.71
2020/08/10 14:47, 49.90
2020/08/10 15:17, 48.76
2020/08/10 15:47, 50.46
2020/08/10 16:17, 51.40
2020/08/10 16:47, 52.92
2020/08/10 17:17, 52.95
2020/08/10 17:47, 52.96
2020/08/10 18:17, 53.47
2020/08/10 18:47, 51.85
2020/08/10 19:17, 51.80
2020/08/10 19:47, 51.83
2020/08/10 20:17, 51.34
2020/08/10 20:47, 47.99
2020/08/10 21:17, 47.63
2020/08/10 21:47, 47.42
2020/08/10 22:17, 47.43
2020/08/10 22:47, 47.43
2020/08/10 23:17, 47.37
2020/08/10 23:47, 47.31
2020/08/11 00:17, 47.26
2020/08/11 00:47, 47.38
2020/08/11 01:17, 47.21
2020/08/11 01:47, 47.19
2020/08/11 02:17, 47.16
2020/08/11 02:47, 47.13
2020/08/11 03:17, 47.09
2020/08/11 03:47, 47.01
2020/08/11 04:17, 46.96
2020/08/11 04:47, 46.84
2020/08/11 05:17, 46.80
2020/08/11 05:47, 46.71
2020/08/11 06:17, 46.65
2020/08/11 06:47, 46.60
2020/08/11 07:17, 46.56
2020/08/11 07:47, 46.52
2020/08/11 08:17, 46.50
2020/08/11 08:47, 46.47
2020/08/11 09:17, 46.44
2020/08/11 09:47, 46.40
2020/08/11 10:17, 46.40
2020/08/11 10:47, 46.38
2020/08/11 11:17, 48.02
2020/08/11 11:47, 50.27
2020/08/11 12:17, 50.64
2020/08/11 12:47, 50.85
2020/08/11 13:17, 51.07
2020/08/11 13:47, 51.33
2020/08/11 14:17, 51.44
2020/08/11 14:47, 51.46
2020/08/11 15:17, 51.42
2020/08/11 15:47, 51.29
2020/08/11 16:17, 51.52
2020/08/11 16:47, 52.37
2020/08/11 17:17, 53.46
2020/08/11 17:47, 53.49
2020/08/11 18:17, 53.55
2020/08/11 18:47, 51.88
2020/08/11 19:17, 51.91
2020/08/11 19:47, 51.92
2020/08/11 20:17, 51.91
2020/08/11 20:47, 51.93
2020/08/11 21:17, 51.91
2020/08/11 21:47, 51.90
2020/08/11 22:17, 51.91
2020/08/11 22:47, 51.89
2020/08/11 23:17, 51.87
2020/08/11 23:47, 51.93
2020/08/12 00:17, 51.93
2020/08/12 00:47, 47.87
2020/08/12 01:17, 47.40
2020/08/12 01:47, 47.42
2020/08/12 02:17, 47.44
2020/08/12 02:47, 47.40
2020/08/12 03:17, 47.37
2020/08/12 03:47, 47.31
2020/08/12 04:17, 47.27
2020/08/12 04:47, 47.22
2020/08/12 05:17, 47.20
2020/08/12 05:47, 47.17
2020/08/12 06:17, 47.15
2020/08/12 06:47, 47.13
2020/08/12 07:17, 47.07
2020/08/12 07:47, 47.04
2020/08/12 08:17, 46.99
2020/08/12 08:47, 46.94
2020/08/12 09:17, 46.86
2020/08/12 09:47, 46.82
2020/08/12 10:17, 46.75
2020/08/12 10:47, 46.70
2020/08/12 11:17, 49.07
2020/08/12 11:47, 50.70
2020/08/12 12:17, 50.95
2020/08/12 13:17, 51.78
2020/08/12 13:47, 52.27
2020/08/12 14:17, 53.47
2020/08/12 14:47, 53.59
2020/08/12 15:17, 53.66
2020/08/12 15:47, 53.73
2020/08/12 16:17, 52.01
2020/08/12 16:47, 52.00
2020/08/12 17:17, 52.06
2020/08/12 17:47, 52.12
2020/08/12 18:17, 52.05
2020/08/12 18:47, 52.11
2020/08/12 19:17, 52.06
2020/08/12 19:47, 52.00
2020/08/12 20:17, 52.10
2020/08/12 20:47, 52.10
2020/08/12 21:17, 52.06
2020/08/12 21:47, 52.09
2020/08/12 22:17, 52.13
2020/08/12 22:47, 52.08
2020/08/12 23:17, 52.07
2020/08/12 23:47, 52.06
2020/08/13 00:17, 52.05
2020/08/13 00:47, 47.44
2020/08/13 01:17, 47.42
2020/08/13 01:47, 47.47
2020/08/13 02:17, 47.45
2020/08/13 02:47, 47.43
2020/08/13 03:17, 47.35
2020/08/13 03:47, 47.32
2020/08/13 04:17, 47.26
2020/08/13 04:47, 47.21
2020/08/13 05:17, 47.19
2020/08/13 05:47, 47.16
2020/08/13 06:17, 47.12
2020/08/13 06:47, 47.03
2020/08/13 07:17, 47.00
2020/08/13 07:47, 46.90
2020/08/13 08:17, 46.80
2020/08/13 08:47, 46.73
2020/08/13 09:17, 46.66
2020/08/13 09:47, 46.66
2020/08/13 10:17, 46.63
2020/08/13 10:47, 46.59
2020/08/13 11:17, 47.99
2020/08/13 11:47, 48.56
2020/08/14 00:47, 47.38
2020/08/14 01:17, 47.41
2020/08/14 01:47, 47.45
2020/08/14 02:17, 47.40
2020/08/14 02:47, 47.41
2020/08/14 03:17, 47.36
2020/08/14 03:47, 47.32
2020/08/14 04:17, 47.24
2020/08/14 04:47, 47.20
2020/08/14 05:17, 47.19
2020/08/14 05:47, 47.17
2020/08/14 06:17, 47.13
2020/08/14 06:47, 47.06
2020/08/14 07:17, 47.03
2020/08/14 07:47, 46.92
2020/08/14 08:17, 46.88
2020/08/14 08:47, 46.78
2020/08/14 09:17, 46.68
2020/08/14 09:47, 46.63
2020/08/14 10:17, 46.60
2020/08/14 10:47, 46.56
2020/08/14 11:17, 47.44
2020/08/14 11:47, 50.03
2020/08/14 12:17, 50.69
2020/08/14 12:47, 51.19
2020/08/14 13:17, 51.38
2020/08/14 13:47, 51.49
2020/08/14 14:17, 51.77
2020/08/14 14:47, 52.36
2020/08/14 15:17, 53.60
2020/08/14 15:47, 53.94
2020/08/14 16:17, 53.95
2020/08/14 16:47, 53.80
2020/08/14 17:17, 52.34
2020/08/14 17:47, 53.55
2020/08/14 18:17, 53.54
2020/08/14 18:47, 53.53
2020/08/14 19:17, 51.85
2020/08/14 19:47, 52.33
2020/08/14 20:17, 52.35
2020/08/14 20:47, 52.34
2020/08/14 21:17, 52.33
2020/08/14 21:47, 52.33
2020/08/14 22:17, 52.37
2020/08/14 22:47, 52.31
2020/08/14 23:17, 52.35
2020/08/14 23:47, 52.36
2020/08/15 00:17, 48.76
2020/08/15 00:47, 47.37
2020/08/15 01:17, 47.43
2020/08/15 01:47, 47.41
2020/08/15 02:17, 47.42
2020/08/15 02:47, 47.38
2020/08/15 03:17, 47.33
2020/08/15 03:47, 47.30
2020/08/15 04:17, 47.24
2020/08/15 04:47, 47.19
2020/08/15 05:17, 47.19
2020/08/15 05:47, 47.15
2020/08/15 06:17, 47.11
2020/08/15 06:47, 47.06
2020/08/15 07:17, 47.00
2020/08/15 07:47, 46.92
2020/08/15 08:17, 46.82
2020/08/15 08:47, 46.74
2020/08/15 09:17, 46.68
2020/08/15 09:47, 46.63
2020/08/15 10:17, 46.59
2020/08/15 10:47, 46.57
2020/08/15 11:17, 47.17
2020/08/15 11:47, 49.55
2020/08/15 12:17, 50.42
2020/08/15 12:47, 51.05
2020/08/15 13:17, 51.58
2020/08/15 13:47, 48.84
2020/08/15 14:17, 48.58
2020/08/15 14:47, 51.48
2020/08/15 15:17, 50.64
2020/08/15 15:47, 52.08
2020/08/15 16:17, 51.74
2020/08/15 16:47, 51.17
2020/08/15 17:17, 53.59
2020/08/15 17:47, 53.62
2020/08/15 18:17, 51.95
2020/08/15 18:47, 52.01
2020/08/15 19:17, 51.95
2020/08/15 19:47, 52.00
2020/08/15 20:17, 52.24
2020/08/15 20:47, 52.20
2020/08/15 21:17, 52.21
2020/08/15 21:47, 52.22
2020/08/15 22:17, 52.23
2020/08/15 22:47, 52.21
2020/08/15 23:17, 52.20
2020/08/15 23:47, 52.24
2020/08/16 00:17, 47.48
2020/08/16 00:47, 47.45
2020/08/16 01:17, 47.47
2020/08/16 01:47, 47.42
2020/08/16 02:17, 47.41
2020/08/16 02:47, 47.31
2020/08/16 03:17, 47.31
2020/08/16 03:47, 47.22
2020/08/16 04:17, 47.20
2020/08/16 04:47, 47.17
2020/08/16 05:17, 47.15
2020/08/16 05:47, 47.12
2020/08/16 06:17, 47.08
2020/08/16 06:47, 46.98
2020/08/16 07:17, 46.91
2020/08/16 07:47, 46.83
2020/08/16 08:17, 46.76
2020/08/16 08:47, 46.69
2020/08/16 09:17, 46.63
2020/08/16 09:47, 46.59
2020/08/16 10:17, 46.58
2020/08/16 10:47, 46.56
2020/08/16 11:17, 47.92
2020/08/16 11:47, 48.25
2020/08/16 12:17, 50.82
2020/08/16 12:47, 51.18
2020/08/16 13:17, 51.38
2020/08/16 13:47, 51.53
2020/08/16 14:17, 51.65
2020/08/16 14:47, 51.79
2020/08/16 15:17, 51.85
2020/08/16 15:47, 53.81
2020/08/16 16:17, 53.90
2020/08/16 16:47, 53.70
2020/08/16 17:17, 53.68
2020/08/16 17:47, 52.08
2020/08/16 18:17, 52.37
2020/08/16 18:47, 52.37
2020/08/16 19:17, 52.36
2020/08/16 19:47, 52.36
2020/08/16 20:17, 52.38
2020/08/16 20:47, 52.36
2020/08/16 21:17, 52.37
2020/08/16 21:47, 52.40
2020/08/16 22:17, 52.35
2020/08/17 00:47, 47.38
2020/08/17 01:17, 47.43
2020/08/17 01:47, 47.43
2020/08/17 02:17, 47.42
2020/08/17 02:47, 47.41
2020/08/17 03:17, 47.34
2020/08/17 03:47, 47.29
2020/08/17 04:17, 47.23
2020/08/17 04:47, 47.20
2020/08/17 05:17, 47.18
2020/08/17 05:47, 47.15
2020/08/17 06:17, 47.13
2020/08/17 06:47, 47.09
2020/08/17 07:17, 47.02
2020/08/17 07:47, 46.97
2020/08/17 08:17, 46.86
2020/08/17 08:47, 46.80
2020/08/17 09:17, 46.74
2020/08/17 09:47, 46.67
2020/08/17 10:17, 46.62
2020/08/17 10:47, 46.59
2020/08/17 11:17, 46.59
2020/08/17 11:47, 47.17
2020/08/17 12:17, 47.68
2020/08/17 12:47, 50.49
2020/08/17 13:17, 51.02
2020/08/17 13:47, 51.18
2020/08/17 14:17, 51.35
2020/08/17 14:47, 51.17
2020/08/17 15:17, 51.48
2020/08/17 15:47, 51.83
2020/08/17 16:17, 51.79
2020/08/17 16:47, 53.53
2020/08/17 17:17, 53.56
2020/08/17 17:47, 53.60
2020/08/17 18:17, 53.83
2020/08/17 18:47, 52.26
2020/08/17 19:17, 52.19
2020/08/17 19:47, 52.18
2020/08/20 12:47, 46.92
2020/08/21 00:47, 47.45
2020/08/21 01:17, 47.46
2020/08/21 01:47, 47.45
2020/08/21 02:17, 47.43
2020/08/21 02:47, 47.39
2020/08/21 03:17, 47.34
2020/08/21 03:47, 47.24
2020/08/21 04:17, 47.22
2020/08/21 04:47, 47.20
2020/08/21 05:17, 47.16
2020/08/21 05:47, 47.14
2020/08/21 06:17, 47.10
2020/08/21 06:47, 47.04
2020/08/22 00:47, 47.21
2020/08/22 01:17, 47.21
2020/08/22 01:47, 47.20
2020/08/22 02:17, 47.18
2020/08/22 02:47, 47.15
2020/08/22 03:17, 47.11
2020/08/22 03:47, 47.06
2020/08/22 04:17, 46.98
2020/08/22 04:47, 46.93
2020/08/22 05:17, 46.81
2020/08/22 05:47, 46.72
2020/08/22 06:17, 46.65
2020/08/22 06:47, 46.58
2020/08/22 07:17, 46.51
2020/08/22 07:47, 46.40
2020/08/22 08:17, 46.36
2020/08/22 08:47, 46.34
2020/08/22 09:17, 46.30
2020/08/22 09:47, 46.29
2020/08/22 10:17, 46.27
2020/08/22 10:47, 46.26
2020/08/22 11:17, 46.62
2020/08/22 11:47, 49.02
2020/08/22 12:17, 48.01
2020/08/22 12:47, 50.54
2020/08/22 13:17, 50.56
2020/08/22 13:47, 50.67
2020/08/22 14:17, 50.76
2020/08/22 14:47, 51.10
2020/08/22 15:17, 51.11
2020/08/22 15:47, 51.41
2020/08/22 16:17, 51.52
2020/08/22 16:47, 51.84
2020/08/22 17:17, 52.16
2020/08/22 17:47, 53.56
2020/08/22 18:17, 53.59
2020/08/22 18:47, 53.61
2020/08/22 19:17, 51.99
2020/08/22 19:47, 51.97
2020/08/22 20:17, 53.49
2020/08/23 01:17, 47.45
2020/08/23 01:47, 47.43
2020/08/23 02:17, 47.41
2020/08/23 02:47, 47.38
2020/08/23 03:17, 47.33
2020/08/23 03:47, 47.28
2020/08/23 04:17, 47.25
2020/08/23 04:47, 47.21
2020/08/23 05:17, 47.19
2020/08/23 05:47, 47.16
2020/08/23 06:17, 47.14
2020/08/23 06:47, 47.11
2020/08/23 07:17, 47.06
2020/08/23 07:47, 47.00
2020/08/23 08:17, 46.93
2020/08/23 08:47, 46.88
2020/08/23 09:17, 46.83
2020/08/23 09:47, 46.79
2020/08/23 10:17, 46.71
2020/08/23 10:47, 46.66
2020/08/23 11:17, 46.70
2020/08/23 11:47, 46.74
2020/08/23 12:17, 49.39
2020/08/23 12:47, 49.62
2020/08/23 13:17, 51.24
2020/08/23 13:47, 51.72
2020/08/23 14:17, 48.93
2020/08/23 14:47, 49.70
2020/08/23 15:17, 51.78
2020/08/23 15:47, 52.01
2020/08/23 16:17, 52.25
2020/08/23 16:47, 53.49
2020/08/23 17:17, 53.49
2020/08/23 17:47, 53.52
2020/08/23 18:17, 53.53
2020/08/23 18:47, 51.88
2020/08/23 19:17, 51.89
2020/08/23 19:47, 51.86
2020/08/23 20:17, 51.84
2020/08/23 20:47, 51.84
2020/08/23 21:17, 51.88
2020/08/23 21:47, 51.86
2020/08/23 22:17, 51.71
2020/08/23 22:47, 51.86
2020/08/23 23:17, 51.72
2020/08/23 23:47, 51.69
2020/08/24 00:17, 47.74
2020/08/24 00:47, 47.47
2020/08/24 01:17, 47.48
2020/08/24 01:47, 47.46
2020/08/24 02:17, 47.42
2020/08/24 02:47, 47.38
2020/08/24 03:17, 47.35
2020/08/24 03:47, 47.29
2020/08/24 04:17, 47.24
2020/08/24 04:47, 47.20
2020/08/24 05:17, 47.16
2020/08/24 05:47, 47.14
2020/08/24 06:17, 47.12
2020/08/24 06:47, 47.07
2020/08/24 07:17, 47.01
2020/08/24 07:47, 46.93
2020/08/24 08:17, 46.83
2020/08/24 08:47, 46.76
2020/08/24 09:17, 46.69
2020/08/24 09:47, 46.61
2020/08/24 10:17, 46.59
2020/08/24 10:47, 46.56
2020/08/24 11:17, 46.58
2020/08/24 11:47, 48.08
2020/08/24 12:17, 50.02
2020/08/24 12:47, 50.39
2020/08/24 13:17, 50.75
2020/08/24 13:47, 51.07
2020/08/24 14:17, 51.11
2020/08/24 14:47, 51.30
2020/08/24 15:17, 51.68
2020/08/24 15:47, 51.84
2020/08/24 16:17, 53.53
2020/08/24 16:47, 53.61
2020/08/24 17:17, 53.55
2020/08/24 17:47, 53.56
2020/08/24 18:17, 51.94
2020/08/24 18:47, 51.94
2020/08/24 19:17, 51.93
2020/08/24 19:47, 51.92
2020/08/24 20:17, 51.90
2020/08/24 20:47, 51.90
2020/08/24 21:17, 51.90
2020/08/24 21:47, 51.50
2020/08/24 22:17, 47.95
2020/08/24 22:47, 51.81
2020/08/24 23:17, 51.85
2020/08/24 23:47, 49.30
2020/08/25 00:17, 47.42
2020/08/25 00:47, 47.44
2020/08/25 01:17, 47.45
2020/08/25 01:47, 47.43
2020/08/25 02:17, 47.40
2020/08/25 02:47, 47.34
2020/08/25 03:17, 47.32